Weather History for KFSD - December, 2012

Change the Weather History Date:

Saturday, December 15, 2012

  Actual Average Record
Temperature  
Mean Temperature 33 °F 19 °F  
Max Temperature 43 °F 28 °F 55 °F (1908)
Min Temperature 23 °F 10 °F -24 °F (1901)
Degree Days  
Heating Degree Days 32 46  
Month to date heating degree days 502 658  
Since 1 July heating degree days 2105 2370  
Cooling Degree Days 0 0  
Month to date cooling degree days 0 0  
Year to date cooling degree days 1182 690  
Moisture  
Dew Point 33 °F    
Average Humidity 85    
Maximum Humidity 100    
Minimum Humidity 70    
Precipitation  
Precipitation 0.61 in 0.02 in 0.79 in (2014)
Month to date precipitation 0.81 0.38  
Year to date precipitation 16.84 26.07  
Snow  
Snow T in 0.30 in 4.00 in (1940)
Month to date snowfall 3.0 4.2  
Since 1 July snowfall 4.1 12.9  
Snow Depth 0.00 in    
Sea Level Pressure  
Sea Level Pressure 29.59 in    
Wind  
Wind Speed 8 mph (NNW)    
Max Wind Speed 18 mph    
Max Gust Speed 22 mph    
Visibility 3 miles    
Events Rain , Snow    
T = Trace of Precipitation, MM = Missing Value Source: NWS Daily Summary

Daily Weather History Graph

Daily Weather History Graph

Search for Another Location

Airport or City:

Trip Planner

Search our weather history database for the weather conditions in past years. The results will help you decide how hot, cold, wet, or windy it might be!

Date:

Astronomy

Dec. 15, 2012 Rise Set
Actual Time 7:53 AM CST 4:51 PM CST
Civil Twilight 7:20 AM CST 5:23 PM CST
Nautical Twilight 6:44 AM CST 6:00 PM CST
Astronomical Twilight 6:09 AM CST 6:35 PM CST
Moon 9:44 AM CST (12/15) 8:00 PM CST (12/15)
Length of Visible Light 10h 03m
Length of Day
8h 57m
Waxing Crescent, 8% of the Moon is Illuminated
Dec 15
Waxing Crescent
Dec 19
First Quarter
Dec 28
Full
Jan 4
Last Quarter
Jan 11
New

Hourly Weather History & Observations

Time (CST) Temp. Windchill Dew Point Humidity Pressure Visibility Wind Dir Wind Speed Gust Speed Precip Events Conditions
12:50 AM 39.2 °F 32.0 °F 37.4 °F 93% 29.59 in 8.0 mi South 11.5 mph - 0.03 in Rain Light Rain
12:56 AM 39.9 °F 33.9 °F 37.0 °F 89% 29.62 in 9.0 mi South 9.2 mph - 0.03 in Rain Light Rain
1:56 AM 39.0 °F 34.8 °F 37.0 °F 93% 29.58 in 10.0 mi SE 5.8 mph - 0.01 in Rain Light Rain
2:08 AM 37.4 °F 32.8 °F 37.4 °F 100% 29.55 in 7.0 mi East 5.8 mph - 0.00 in Rain Light Rain
2:56 AM 39.0 °F 34.8 °F 37.9 °F 96% 29.59 in 5.0 mi SE 5.8 mph - 0.09 in Rain Light Rain
3:48 AM 37.4 °F 32.8 °F 37.4 °F 100% 29.53 in 4.0 mi NE 5.8 mph - 0.05 in Rain Light Rain
3:56 AM 37.9 °F 32.7 °F 37.0 °F 97% 29.56 in 3.0 mi NE 6.9 mph - 0.05 in Rain Light Rain
4:56 AM 37.0 °F 33.3 °F 37.0 °F 100% 29.54 in 3.0 mi East 4.6 mph - 0.05 in Rain Rain
5:45 AM 37.4 °F 34.9 °F 37.4 °F 100% 29.49 in 2.5 mi NE 3.5 mph - 0.09 in Rain Light Rain
5:56 AM 37.0 °F 34.5 °F 37.0 °F 100% 29.52 in 2.5 mi NE 3.5 mph - 0.10 in Rain Light Rain
6:09 AM 37.4 °F 34.9 °F 37.4 °F 100% 29.49 in 1.8 mi NE 3.5 mph - 0.02 in Rain Light Rain
6:56 AM 37.0 °F - 37.0 °F 100% 29.52 in 1.0 mi Calm Calm - 0.08 in Rain Light Rain
7:56 AM 37.0 °F 34.5 °F 37.0 °F 100% 29.52 in 1.0 mi NNE 3.5 mph - 0.07 in Rain Light Rain
8:25 AM 37.4 °F 33.8 °F 37.4 °F 100% 29.49 in 0.8 mi North 4.6 mph - 0.01 in Rain Light Rain
8:56 AM 37.0 °F 32.4 °F 37.0 °F 100% 29.53 in 0.8 mi NNE 5.8 mph - 0.03 in Rain Light Rain
9:20 AM 37.4 °F 32.8 °F 37.4 °F 100% 29.50 in 1.0 mi NNE 5.8 mph - 0.00 in Rain Light Rain
9:56 AM 37.0 °F 32.4 °F 37.0 °F 100% 29.54 in 1.5 mi North 5.8 mph - 0.01 in   Overcast
10:40 AM 37.4 °F 30.8 °F 35.6 °F 93% 29.52 in 2.5 mi North 9.2 mph - 0.00 in Rain Light Rain
10:56 AM 37.9 °F 32.7 °F 37.0 °F 97% 29.54 in 2.5 mi North 6.9 mph - 0.00 in Rain Light Rain
11:56 AM 37.0 °F 29.8 °F 36.0 °F 96% 29.54 in 2.5 mi NNW 10.4 mph - 0.01 in Rain Light Rain
12:18 PM 37.4 °F 30.3 °F 35.6 °F 93% 29.51 in 5.0 mi NNW 10.4 mph - 0.00 in Rain Light Rain
12:37 PM 35.6 °F 28.6 °F 35.6 °F 100% 29.51 in 5.0 mi NNW 9.2 mph - 0.00 in Rain Light Rain
12:56 PM 36.0 °F 28.5 °F 34.0 °F 93% 29.55 in 5.0 mi NNW 10.4 mph - 0.00 in Rain Light Rain
1:30 PM 33.8 °F 27.0 °F 33.8 °F 100% 29.52 in 1.0 mi NW 8.1 mph - 0.03 in Snow Light Snow
1:56 PM 33.1 °F 27.7 °F 33.1 °F 100% 29.56 in 1.0 mi NW 5.8 mph - 0.05 in Snow Light Snow
2:25 PM 33.8 °F 26.4 °F 33.8 °F 100% 29.53 in 2.0 mi NW 9.2 mph - 0.01 in Snow Light Snow
2:56 PM 34.0 °F 26.6 °F 33.1 °F 96% 29.57 in 2.5 mi NW 9.2 mph - 0.01 in Snow Light Snow
3:17 PM 33.8 °F 25.8 °F 32.0 °F 93% 29.55 in 2.0 mi NW 10.4 mph - 0.01 in Snow Light Snow
3:56 PM 34.0 °F 24.6 °F 32.0 °F 92% 29.59 in 2.0 mi NNW 13.8 mph - 0.02 in Snow Light Snow
4:26 PM 33.8 °F 24.8 °F 32.0 °F 93% 29.56 in 2.0 mi NNW 12.7 mph - 0.00 in Rain Light Rain
4:56 PM 33.1 °F 25.5 °F 32.0 °F 96% 29.62 in 2.0 mi NW 9.2 mph - 0.00 in Snow Light Snow
5:43 PM 32.0 °F 25.6 °F 30.2 °F 93% 29.62 in 2.0 mi NW 6.9 mph - 0.00 in Snow Light Snow
5:56 PM 32.0 °F 23.6 °F 30.2 °F 93% 29.63 in 2.0 mi WNW 10.4 mph - N/A Snow Light Snow
6:14 PM 30.2 °F 20.2 °F 30.2 °F 100% 29.64 in 2.0 mi WNW 12.7 mph - 0.00 in Snow Light Snow
6:45 PM 30.2 °F 21.3 °F 28.4 °F 93% 29.66 in 2.0 mi WNW 10.4 mph - 0.00 in Rain , Snow Light Freezing Rain
6:56 PM 30.0 °F 20.0 °F 28.0 °F 92% 29.70 in 2.0 mi WNW 12.7 mph 18.4 mph 0.00 in Rain , Snow Light Freezing Rain
7:08 PM 28.4 °F 16.2 °F 26.6 °F 93% 29.66 in 2.0 mi WNW 17.3 mph 21.9 mph 0.00 in Snow Light Snow
7:15 PM 28.4 °F 17.5 °F 26.6 °F 93% 29.66 in 2.0 mi WNW 13.8 mph 21.9 mph 0.00 in Snow Light Snow
7:56 PM 28.0 °F 17.5 °F 26.1 °F 92% 29.72 in 2.0 mi WNW 12.7 mph 21.9 mph 0.00 in   Overcast
8:06 PM 28.4 °F 17.5 °F 26.6 °F 93% 29.67 in 4.0 mi WNW 13.8 mph 19.6 mph N/A   Overcast
8:56 PM 27.0 °F 14.7 °F 25.0 °F 92% 29.72 in 3.0 mi WNW 16.1 mph - N/A   Overcast
9:34 PM 26.6 °F 16.2 °F 24.8 °F 93% 29.67 in 5.0 mi NW 11.5 mph - N/A   Scattered Clouds
9:56 PM 25.0 °F 16.3 °F 23.0 °F 92% 29.72 in 6.0 mi NNW 8.1 mph - N/A   Clear
10:56 PM 24.1 °F 15.2 °F 21.9 °F 91% 29.73 in 7.0 mi NW 8.1 mph - N/A   Clear
11:56 PM 23.0 °F 13.1 °F 19.4 °F 86% 29.69 in 10.0 mi NNW 9.2 mph - N/A   Clear